Eugene, OR

1:42 PM PDT on August 18, 2017 (GMT -0700)
Mahlon Sweet

Weather History for KEUG - September, 2013

Change the Weather History Date:

Monday, September 16, 2013

  Actual Average Record
Temperature  
Mean Temperature 66 °F 62 °F  
Max Temperature 74 °F 77 °F 91 °F (1994)
Min Temperature 57 °F 47 °F 35 °F (1936)
Degree Days  
Heating Degree Days 0 4  
Month to date heating degree days 2 43  
Since 1 July heating degree days 20 110  
Cooling Degree Days 1 1  
Month to date cooling degree days 63 23  
Year to date cooling degree days 411 231  
Growing Degree Days 15 (Base 50)    
Moisture  
Dew Point 54 °F    
Average Humidity 64    
Maximum Humidity 86    
Minimum Humidity 41    
Precipitation  
Precipitation 0.00 in 0.05 in 1.01 in (1946)
Month to date precipitation 0.90 0.59  
Year to date precipitation 10.82 26.60  
Snow  
Snow 0.00 in - - ()
Month to date snowfall 0.0  
Since 1 July snowfall 0.0  
Since 1 September snowfall 0.0  
Snow Depth 0.00 in    
Sea Level Pressure  
Sea Level Pressure 29.96 in    
Wind  
Wind Speed 5 mph (SW)    
Max Wind Speed 13 mph    
Max Gust Speed 16 mph    
Visibility 10 miles    
Events      
T = Trace of Precipitation, MM = Missing Value Source: NWS Daily Summary

Daily Weather History Graph

Daily Weather History Graph

Search for Another Location

Airport or City:

Trip Planner

Search our weather history database for the weather conditions in past years. The results will help you decide how hot, cold, wet, or windy it might be!

Date:

Astronomy

Sep. 16, 2013 Rise Set
Actual Time 6:53 AM PDT 7:20 PM PDT
Civil Twilight 6:24 AM PDT 7:49 PM PDT
Nautical Twilight 5:50 AM PDT 8:23 PM PDT
Astronomical Twilight 5:14 AM PDT 8:59 PM PDT
Moon 5:37 PM PDT (9/16) 3:40 AM PDT (9/16)
Length of Visible Light 13h 25m
Length of Day
12h 27m
Waxing Gibbous, 91% of the Moon is Illuminated
Sep 16
Waxing Gibbous
Sep 19
Full
Sep 26
Last Quarter
Oct 4
New
Oct 11
First Quarter

Hourly Weather History & Observations

Time (PDT) Temp. Dew Point Humidity Pressure Visibility Wind Dir Wind Speed Gust Speed Precip Events Conditions
12:54 AM 60.1 °F 54.0 °F 80% 29.94 in 10.0 mi South 4.6 mph - N/A   Overcast
1:54 AM 60.1 °F 53.1 °F 78% 29.94 in 10.0 mi South 5.8 mph - N/A   Overcast
2:54 AM 60.1 °F 53.1 °F 78% 29.96 in 10.0 mi Calm Calm - N/A   Overcast
3:47 AM 60.8 °F 53.6 °F 77% 29.97 in 10.0 mi South 3.5 mph - N/A   Overcast
3:54 AM 59.0 °F 53.1 °F 81% 29.96 in 10.0 mi South 3.5 mph - N/A   Overcast
4:54 AM 59.0 °F 53.1 °F 81% 29.97 in 10.0 mi South 3.5 mph - N/A   Overcast
5:45 AM 59.0 °F 53.6 °F 82% 29.97 in 10.0 mi SSW 3.5 mph - N/A   Overcast
5:54 AM 57.9 °F 53.1 °F 84% 29.97 in 10.0 mi SSW 3.5 mph - N/A   Mostly Cloudy
6:54 AM 59.0 °F 53.1 °F 81% 29.98 in 10.0 mi South 4.6 mph - N/A   Overcast
7:27 AM 59.0 °F 53.6 °F 82% 29.98 in 10.0 mi South 3.5 mph - N/A   Overcast
7:54 AM 60.1 °F 53.1 °F 78% 29.99 in 10.0 mi SSW 5.8 mph - N/A   Mostly Cloudy
8:54 AM 62.1 °F 53.1 °F 72% 29.99 in 10.0 mi South 6.9 mph - N/A   Mostly Cloudy
9:54 AM 64.0 °F 53.1 °F 67% 30.00 in 10.0 mi SSW 4.6 mph - N/A   Mostly Cloudy
10:54 AM 64.9 °F 53.1 °F 65% 30.00 in 10.0 mi WSW 4.6 mph - N/A   Mostly Cloudy
11:54 AM 68.0 °F 54.0 °F 61% 30.00 in 10.0 mi Variable 3.5 mph - N/A   Mostly Cloudy
12:54 PM 72.0 °F 52.0 °F 49% 29.99 in 10.0 mi West 8.1 mph - N/A   Mostly Cloudy
1:54 PM 70.0 °F 53.1 °F 55% 29.98 in 10.0 mi West 6.9 mph - N/A   Mostly Cloudy
2:54 PM 73.0 °F 48.9 °F 42% 29.96 in 10.0 mi Variable 3.5 mph - N/A   Mostly Cloudy
3:54 PM 73.0 °F 52.0 °F 48% 29.94 in 10.0 mi West 6.9 mph - N/A   Mostly Cloudy
4:54 PM 70.0 °F 53.1 °F 55% 29.94 in 10.0 mi NW 8.1 mph - N/A   Mostly Cloudy
5:54 PM 71.1 °F 54.0 °F 55% 29.92 in 10.0 mi West 6.9 mph - N/A   Scattered Clouds
6:54 PM 68.0 °F 55.0 °F 63% 29.91 in 10.0 mi North 11.5 mph - N/A   Scattered Clouds
7:54 PM 64.0 °F 55.9 °F 75% 29.92 in 10.0 mi North 8.1 mph - N/A   Mostly Cloudy
8:54 PM 63.0 °F 55.0 °F 75% 29.92 in 10.0 mi NNE 6.9 mph - N/A   Mostly Cloudy
9:54 PM 63.0 °F 55.9 °F 78% 29.91 in 10.0 mi North 9.2 mph - N/A   Mostly Cloudy
10:54 PM 62.1 °F 55.9 °F 80% 29.91 in 10.0 mi North 6.9 mph - N/A   Mostly Cloudy
11:54 PM 61.0 °F 55.0 °F 81% 29.90 in 10.0 mi Calm Calm - N/A   Overcast